Weather in Yurakovo

Russia / Ryazan Oblast     54°01′00″N   39°57′01″E
temp.,
°C
wind,
m/s
gust,
m/s
humid.,
%
clouds,
%
prec.,
mm/h
press.,
hPa
HPBL,
m
2 march, tue
tue200:00−2wsw6129299 0.0 1018543
03:00+1wsw61292100 0.0 1015631
06:00+1w61393100 0.0 1011653
09:00+1w61296100 0.0 1010536
12:00+1wnw612100100 0.1 1008545
15:00+1wnw511100100 0.2 1008620
18:000wnw41093100 0.2 1007352
21:00−1nw5139098 0.4 1009538
3 march, wed
wed300:00−2nw61393100 0.1 1010516
03:00−3nw6129499 0.3 1012574
06:00−6nw6149080 0.1 1012472
09:00−5nw7149079 0.1 1015688
12:00−4nw7128368 0.0 1015801
15:00−2wnw5108434 0.0 1015904
18:00−3wnw5119281 0.0 1015374
21:00−2wnw5119082 0.1 1015446
4 march, thu
thu400:00−2w5119094 0.0 1014418
03:00−2w5119094 0.1 1013606
06:00−3sw61390100 0.0 1010425
09:00−2sw81688100 0.0 1008480
12:00+1wsw91782100 0.0 1004771
15:00+1wsw91782100 0.0 1003841
18:000wsw71685100 0.0 1001706
21:00+1wsw6129598 0.1 1001530
5 march, fri
fri500:00+1w4898100 0.1 1001366
03:00−3n3586100 0.4 1003128
06:00−4nnw2389100 0.0 100474
09:00−4n2390100 0.0 1006153
12:00−3nne1183100 0.0 1007358
15:00−2ne2285100 0.0 1007422
18:00−3ne3597100 0.4 1006213
21:00−4nne4697100 1.4 1006265
6 march, sat
sat600:00−5n4796100 1.0 1006330
03:00−6n3796100 1.4 1007266
06:00−9nw3596100 0.0 100989
09:00−8nw489391 0.1 1010290
12:00−6nw468973 0.0 1011576
15:00−5wnw468787 0.5 1011697
18:00−9wnw348856 0.2 101257
21:00−10wsw349053 0.2 101347